Temp
79 79 80 78 78 78 78 79 79 79 79 81 79 80 81 80 82 81 81 81 81 79 79 78 78 77 79 78 77 78 79 78 78 78 77 77 77 77 77 77 76 76
78 78 79 79 78 78 78 78 79 80 79 79 80 81 81 82 82 81 81 81 81 81 80 80 79 79 78 79 78 76 77 77 77 80 76 76 76 77 76 76 77 77
78 78 78 77 78 77 78 78 78 78 77 79 79 78 79 79 79 79 79 79 80 82 81 79 79 79 79 79 78 77 77 77 76 78 78 78 77 76 77 77 76 77
77 78 79 80 78 78 78 77 77 77 78 78 78 80 78 79 78 78 78 78 78 78 79 79 79 79 80 80 79 77 77 78 79 78 76 76 77 78 76 77 76 77
77 77 79 79 78 78 77 78 79 79 78 77 77 78 78 77 77 79 78 78 77 78 78 78 78 78 78 78 78 77 77 77 78 78 76 76 77 77 77 77 76 75
77 79 79 79 78 77 77 78 79 79 78 76 76 77 75 75 77 77 78 78 78 77 78 79 79 78 79 79 77 76 77 77 77 78 78 78 78 78 79 78 76 76
76 77 77 79 77 76 75 75 75 75 76 77 78 76 77 76 76 77 78 76 77 76 77 77 76 76 77 77 77 77 77 77 78 79 78 78 78 77 79 78 77 77
76 76 75 76 75 74 73 75 76 76 76 77 75 76 76 77 78 78 79 77 77 77 76 76 75 76 76 77 76 75 74 77 77 77 77 77 77 78 78 79 77 76
75 75 74 74 73 74 74 75 76 76 77 76 76 76 77 77 77 77 77 78 78 77 77 76 73 73 73 74 74 74 73 74 74 74 73 74 75 76 77 78 77 75
74 75 74 74 73 73 73 74 75 75 76 75 76 75 75 75 75 77 76 74 74 75 75 74 74 74 73 74 74 76 75 74 73 71 71 71 71 73 74 74 73 71
73 73 74 73 73 73 72 73 74 75 75 76 76 75 75 75 75 77 77 77 75 75 75 75 75 75 74 74 73 72 72 72 72 72 71 69 70 72 71 72 69 69
72 72 72 72 72 72 73 73 73 73 74 75 77 75 75 75 76 77 76 77 75 75 78 78 76 74 73 71 72 72 71 70 71 72 73 74 74 74 73 71 69 69
72 72 72 71 71 71 72 72 72 72 73 74 75 75 74 74 74 74 74 71 71 73 73 73 73 71 73 72 72 71 69 70 68 69 73 73 74 74 73 72 71 71
71 71 71 71 71 71 71 71 71 71 71 70 71 71 72 72 71 73 73 73 72 71 71 71 71 70 69 69 69 70 70 70 72 72 73 74 73 72 71 70 69 69
71 71 71 71 70 70 69 69 69 69 70 70 69 69 71 73 72 73 72 71 72 70 70 69 66 63 61 59 61 67 71 71 70 69 69 70 71 72 71 70 70 69
70 70 70 70 70 70 70 70 69 68 69 69 69 70 71 71 71 71 72 72 71 71 70 68 66 62 55 49 49 56 64 70 70 68 68 68 68 68 68 68 68 69
70 69 69 68 68 69 69 69 69 68 68 68 69 69 70 71 72 72 72 72 72 70 67 66 64 59 48 43 44 45 56 66 69 69 68 68 68 68 67 67 68 68
70 70 70 69 69 69 69 70 69 69 69 69 68 68 69 70 70 71 71 70 70 70 67 65 62 51 43 44 43 43 48 61 70 71 69 67 68 68 68 67 67 67
72 71 70 70 69 69 69 70 70 69 68 69 68 69 70 69 70 69 69 70 69 69 67 66 63 49 43 44 43 43 44 52 67 69 67 66 66 67 67 66 66 67
74 73 72 71 71 70 70 70 69 69 69 70 70 70 69 69 68 68 68 68 69 68 67 66 63 51 42 43 44 42 43 48 70 66 65 66 67 67 66 66 66 66
73 72 71 71 71 71 70 70 69 69 70 70 70 69 69 68 68 68 68 68 68 68 68 65 60 44 41 42 42 43 44 50 68 65 66 66 65 65 65 65 65 66
72 72 71 72 72 71 70 69 69 69 68 69 69 69 70 70 69 69 69 68 68 68 68 66 60 41 41 41 41 42 41 63 68 67 66 66 66 66 68 67 66 65
73 72 71 71 71 70 70 69 68 69 69 70 69 69 69 69 69 69 70 69 68 68 67 67 65 48 41 41 41 40 48 69 68 69 68 66 66 65 66 66 65 66
73 73 72 71 71 70 69 69 69 70 69 70 69 69 68 69 70 70 70 69 68 67 67 67 66 53 40 42 41 40 48 66 70 69 67 67 66 66 67 66 63 53
73 72 71 71 70 69 69 69 69 69 70 70 70 70 69 71 71 71 70 70 70 68 63 65 67 57 39 39 39 39 50 68 70 70 68 67 68 67 67 68 65 62
72 71 71 71 71 70 70 70 70 70 70 69 70 72 72 72 71 71 70 70 70 69 68 68 67 68 56 35 39 42 41 60 70 68 67 66 68 69 68 68 68 66
MSLP
1015.81 1015.85 1015.93 1016.13 1016.21 1016.25 1016.41 1016.45 1016.45 1016.53 1016.57 1016.45 1016.85 1016.65 1016.57 1016.53 1016.49 1016.73 1016.81 1016.89 1017.05 1017.37 1017.49 1017.57 1017.61 1017.69 1017.69 1017.69 1017.77 1017.77 1017.61 1017.69 1017.77 1017.73 1017.81 1017.93 1017.97 1017.97 1018.01 1017.97 1018.05 1018.05
1015.85 1015.89 1015.93 1015.97 1016.05 1016.09 1016.25 1016.29 1016.25 1016.33 1016.53 1016.61 1016.57 1016.41 1016.37 1016.33 1016.49 1016.65 1016.65 1016.81 1016.89 1017.09 1017.21 1017.29 1017.41 1017.53 1017.61 1017.53 1017.65 1017.85 1017.81 1017.73 1017.85 1017.61 1017.85 1018.01 1017.97 1017.93 1017.97 1017.89 1017.85 1017.73
1015.81 1015.89 1015.97 1016.09 1016.05 1016.09 1016.17 1016.21 1016.33 1016.49 1016.57 1016.49 1016.45 1016.61 1016.65 1016.65 1016.81 1016.81 1016.89 1017.01 1016.93 1016.61 1016.65 1017.09 1017.25 1017.37 1017.41 1017.41 1017.45 1017.65 1017.73 1017.77 1017.85 1017.61 1017.65 1017.77 1017.73 1017.85 1017.77 1017.77 1017.81 1017.73
1015.77 1015.73 1015.69 1015.73 1015.85 1016.01 1016.05 1016.25 1016.37 1016.41 1016.45 1016.57 1016.61 1016.49 1016.61 1016.65 1016.73 1016.77 1016.85 1016.93 1017.01 1016.97 1016.93 1016.93 1017.05 1017.13 1017.17 1017.17 1017.29 1017.53 1017.57 1017.53 1017.37 1017.45 1017.73 1017.73 1017.77 1017.69 1017.73 1017.69 1017.73 1017.69
1015.73 1015.73 1015.65 1015.65 1015.73 1015.81 1016.01 1016.17 1016.13 1016.17 1016.33 1016.41 1016.49 1016.53 1016.57 1016.65 1016.73 1016.65 1016.69 1016.77 1016.85 1016.89 1016.85 1016.93 1016.97 1017.13 1017.25 1017.29 1017.29 1017.41 1017.45 1017.45 1017.21 1017.25 1017.57 1017.69 1017.57 1017.61 1017.57 1017.61 1017.69 1017.77
1015.49 1015.49 1015.49 1015.53 1015.61 1015.93 1016.05 1016.09 1016.01 1016.13 1016.25 1016.45 1016.53 1016.49 1016.61 1016.69 1016.69 1016.65 1016.61 1016.69 1016.69 1016.81 1016.81 1016.77 1016.81 1016.85 1016.89 1016.97 1017.13 1017.25 1017.25 1017.29 1017.21 1017.17 1017.25 1017.29 1017.25 1017.13 1017.21 1017.29 1017.41 1017.49
1015.45 1015.41 1015.41 1015.33 1015.57 1015.93 1016.17 1016.17 1016.25 1016.33 1016.33 1016.25 1016.25 1016.45 1016.41 1016.53 1016.57 1016.53 1016.49 1016.69 1016.73 1016.77 1016.77 1016.73 1016.81 1016.93 1016.81 1016.85 1016.93 1016.97 1016.93 1016.97 1016.85 1016.89 1017.01 1016.89 1016.85 1016.97 1016.93 1017.01 1017.13 1017.09
1015.37 1015.41 1015.57 1015.57 1015.81 1016.09 1016.29 1016.21 1016.09 1016.09 1016.13 1016.17 1016.33 1016.25 1016.33 1016.37 1016.33 1016.25 1016.25 1016.45 1016.61 1016.61 1016.65 1016.73 1016.89 1016.85 1016.85 1016.77 1016.93 1016.97 1016.93 1016.81 1016.81 1016.85 1016.85 1016.77 1016.61 1016.73 1016.73 1016.69 1016.81 1017.09
1015.33 1015.45 1015.57 1015.77 1015.97 1016.01 1016.01 1015.93 1015.85 1015.89 1015.85 1016.09 1016.17 1016.13 1016.13 1016.21 1016.17 1016.17 1016.21 1016.25 1016.29 1016.33 1016.45 1016.49 1016.85 1017.09 1016.93 1016.81 1016.85 1016.97 1016.97 1016.89 1016.93 1017.01 1017.05 1017.09 1017.05 1016.93 1016.77 1016.45 1016.53 1016.97
1015.41 1015.41 1015.65 1015.81 1015.93 1016.05 1016.09 1015.93 1015.85 1015.89 1015.85 1015.97 1016.05 1016.09 1016.13 1016.17 1016.21 1016.21 1016.33 1016.57 1016.57 1016.49 1016.49 1016.57 1016.61 1016.65 1016.65 1016.57 1016.57 1016.53 1016.65 1016.85 1017.01 1017.21 1017.29 1017.41 1017.41 1017.25 1017.01 1016.93 1016.97 1017.13
1015.53 1015.61 1015.77 1015.85 1015.97 1016.01 1016.05 1015.97 1015.89 1015.89 1015.89 1015.97 1016.01 1016.17 1016.17 1016.09 1016.09 1016.09 1016.13 1016.13 1016.29 1016.33 1016.37 1016.41 1016.37 1016.37 1016.45 1016.53 1016.57 1016.81 1016.89 1016.89 1016.81 1016.81 1016.97 1017.25 1017.13 1017.01 1017.01 1016.89 1016.93 1017.05
1015.65 1015.73 1015.81 1015.93 1016.01 1016.01 1015.97 1015.97 1015.97 1016.01 1016.05 1016.05 1015.93 1016.05 1016.05 1016.01 1016.05 1015.89 1016.05 1015.97 1016.13 1016.09 1015.81 1015.81 1015.97 1016.25 1016.53 1016.81 1016.77 1016.65 1016.69 1016.69 1016.57 1016.45 1016.37 1016.49 1016.41 1016.37 1016.45 1016.61 1016.81 1016.93
1015.85 1015.89 1015.89 1016.01 1016.05 1016.09 1016.05 1016.05 1016.17 1016.21 1016.21 1016.21 1016.09 1016.09 1016.17 1016.21 1016.13 1016.17 1016.13 1016.45 1016.45 1016.29 1016.25 1016.21 1016.37 1016.61 1016.61 1016.77 1016.73 1016.69 1016.73 1016.65 1016.85 1016.65 1016.21 1016.29 1016.29 1016.17 1016.25 1016.37 1016.49 1016.61
1016.05 1016.05 1016.13 1016.17 1016.17 1016.17 1016.17 1016.25 1016.37 1016.41 1016.49 1016.61 1016.61 1016.61 1016.53 1016.49 1016.57 1016.37 1016.41 1016.49 1016.57 1016.61 1016.69 1016.77 1016.85 1017.05 1017.25 1017.21 1017.09 1016.89 1016.73 1016.69 1016.45 1016.37 1016.17 1015.97 1016.09 1016.25 1016.25 1016.37 1016.49 1016.45
1016.25 1016.33 1016.37 1016.41 1016.49 1016.53 1016.57 1016.69 1016.81 1016.85 1016.85 1016.85 1016.97 1016.97 1016.81 1016.61 1016.61 1016.61 1016.65 1016.73 1016.81 1016.85 1016.93 1017.13 1017.37 1017.61 1018.01 1018.17 1017.89 1017.21 1016.73 1016.61 1016.57 1016.65 1016.61 1016.45 1016.33 1016.25 1016.21 1016.29 1016.29 1016.37
1016.57 1016.65 1016.69 1016.65 1016.69 1016.77 1016.81 1016.85 1017.01 1017.17 1017.09 1017.09 1017.09 1017.05 1016.97 1016.93 1016.93 1016.89 1016.81 1016.85 1016.93 1017.05 1017.17 1017.33 1017.57 1018.05 1018.77 1018.97 1018.97 1018.53 1017.53 1016.81 1016.69 1016.77 1016.73 1016.57 1016.49 1016.49 1016.49 1016.49 1016.49 1016.37
1016.89 1017.01 1017.09 1017.17 1017.25 1017.21 1017.17 1017.09 1017.33 1017.45 1017.45 1017.41 1017.41 1017.37 1017.29 1017.17 1017.09 1017.13 1017.13 1017.09 1017.05 1017.29 1017.57 1017.81 1018.05 1018.69 1019.21 1019.13 1018.93 1018.89 1018.41 1017.21 1016.81 1016.61 1016.61 1016.57 1016.49 1016.49 1016.53 1016.53 1016.41 1016.45
1017.05 1017.09 1017.17 1017.29 1017.37 1017.49 1017.45 1017.41 1017.49 1017.61 1017.65 1017.65 1017.73 1017.81 1017.73 1017.61 1017.57 1017.45 1017.37 1017.37 1017.37 1017.53 1017.77 1018.05 1018.45 1019.21 1019.25 1019.05 1018.89 1018.69 1018.49 1017.73 1016.69 1016.37 1016.57 1016.65 1016.49 1016.57 1016.57 1016.57 1016.57 1016.53
1017.21 1017.29 1017.41 1017.53 1017.61 1017.73 1017.81 1017.69 1017.73 1017.89 1017.97 1018.01 1018.09 1017.97 1017.85 1017.85 1017.77 1017.73 1017.73 1017.65 1017.69 1017.77 1017.97 1018.13 1018.45 1019.29 1019.33 1019.17 1018.85 1018.65 1018.33 1018.17 1016.97 1016.69 1016.85 1016.97 1016.89 1016.77 1016.73 1016.77 1016.73 1016.53
1017.21 1017.33 1017.45 1017.61 1017.69 1017.85 1017.93 1017.93 1017.97 1018.13 1018.13 1018.05 1018.01 1018.01 1018.05 1018.09 1018.09 1018.09 1018.01 1017.97 1017.97 1017.97 1018.09 1018.33 1018.65 1019.45 1019.49 1019.25 1018.97 1018.65 1018.21 1017.97 1017.05 1017.21 1017.21 1017.13 1016.89 1016.93 1017.01 1016.93 1016.85 1016.73
1017.73 1017.85 1017.97 1017.97 1018.01 1018.05 1018.13 1018.25 1018.33 1018.37 1018.29 1018.21 1018.21 1018.25 1018.25 1018.29 1018.25 1018.33 1018.33 1018.21 1018.17 1018.13 1018.17 1018.45 1019.05 1019.73 1019.61 1019.41 1019.09 1018.69 1018.17 1017.85 1017.33 1017.41 1017.25 1017.21 1017.25 1017.25 1017.25 1017.25 1017.25 1017.21
1018.09 1018.17 1018.17 1018.17 1018.21 1018.29 1018.37 1018.53 1018.57 1018.61 1018.57 1018.45 1018.41 1018.37 1018.37 1018.33 1018.37 1018.33 1018.37 1018.33 1018.29 1018.25 1018.25 1018.41 1019.09 1019.77 1019.73 1019.57 1019.29 1018.93 1018.73 1017.85 1017.29 1017.33 1017.25 1017.17 1017.25 1017.21 1017.09 1017.21 1017.33 1017.37
1018.21 1018.29 1018.37 1018.33 1018.37 1018.49 1018.61 1018.73 1018.73 1018.73 1018.65 1018.45 1018.49 1018.53 1018.53 1018.53 1018.53 1018.49 1018.41 1018.45 1018.49 1018.45 1018.41 1018.41 1018.73 1019.53 1019.65 1019.53 1019.25 1018.97 1018.53 1017.21 1017.13 1016.93 1017.09 1017.21 1017.33 1017.45 1017.37 1017.37 1017.41 1017.37
1018.33 1018.37 1018.49 1018.49 1018.57 1018.73 1018.81 1018.85 1018.77 1018.69 1018.73 1018.69 1018.65 1018.65 1018.69 1018.65 1018.45 1018.37 1018.45 1018.45 1018.57 1018.57 1018.61 1018.41 1018.53 1019.17 1019.41 1019.33 1019.17 1018.89 1018.53 1017.57 1017.01 1016.97 1017.25 1017.25 1017.25 1017.33 1017.21 1017.37 1017.73 1018.13
1018.61 1018.65 1018.69 1018.73 1018.81 1018.97 1018.93 1018.93 1018.89 1018.89 1018.89 1018.81 1018.77 1018.61 1018.65 1018.37 1018.41 1018.25 1018.29 1018.21 1018.33 1018.49 1018.73 1018.53 1018.25 1018.77 1019.17 1019.17 1019.09 1018.93 1018.49 1017.53 1017.05 1016.89 1017.13 1017.13 1016.97 1017.13 1017.17 1017.05 1017.49 1017.73
1018.73 1018.81 1018.85 1018.85 1018.85 1018.97 1018.97 1018.93 1018.89 1018.81 1018.85 1018.85 1018.77 1018.37 1018.21 1018.25 1018.29 1018.17 1018.29 1018.13 1018.09 1018.13 1018.17 1018.13 1018.09 1018.01 1018.57 1018.85 1018.85 1018.73 1018.57 1018.01 1017.17 1017.21 1017.13 1017.21 1016.97 1016.77 1016.77 1016.85 1016.93 1017.09
Wind_Speed
7 6 5 5 4 3 2 3 4 4 4 4 4 4 3 3 3 3 3 4 3 5 5 5 4 4 4 4 4 4 4 4 5 5 6 6 6 7 7 7 8 7
7 6 5 4 3 3 3 4 4 4 4 4 4 4 4 3 3 4 4 5 6 7 6 6 6 6 6 5 5 5 5 4 5 4 5 7 7 7 8 8 7 7
8 7 7 6 4 3 4 4 3 3 3 3 3 3 3 3 4 3 4 5 7 7 5 6 7 6 6 6 5 5 5 5 5 5 5 6 5 6 6 6 7 8
8 8 7 6 4 4 3 3 4 4 4 5 5 4 3 3 3 4 5 5 6 7 7 7 7 7 7 7 6 5 6 6 6 5 5 5 5 5 5 4 5 7
8 7 6 4 4 4 3 4 5 5 5 5 5 5 5 3 4 6 5 5 5 6 6 7 7 7 7 7 8 7 6 7 7 6 6 6 6 5 5 5 5 6
7 6 6 5 4 4 4 5 5 4 4 4 4 4 3 4 5 6 5 5 4 4 5 6 6 6 7 8 7 7 7 7 8 8 9 8 8 7 6 6 6 6
6 5 5 5 4 3 4 4 4 5 6 5 4 4 4 4 5 6 6 4 5 5 5 4 4 5 5 5 7 8 8 9 9 10 10 9 9 9 8 8 8 8
6 5 5 5 4 4 5 6 6 5 4 5 5 5 5 6 6 6 5 5 6 7 6 5 5 5 5 6 6 7 7 7 8 9 10 11 9 9 9 8 7 8
3 3 2 3 4 4 4 4 4 4 4 4 4 5 5 5 5 5 6 6 6 5 6 6 5 7 5 7 8 6 6 7 6 6 6 7 8 8 9 10 9 6
3 2 3 3 2 2 3 3 3 2 3 3 4 4 5 4 5 6 5 6 7 8 8 7 7 7 5 5 8 10 8 6 4 5 6 4 7 8 8 7 6 6
2 1 1 2 2 2 2 2 2 2 2 3 3 3 3 4 4 4 5 5 5 6 7 7 6 5 5 5 5 4 5 6 6 6 6 7 9 10 10 9 7 8
3 2 1 1 1 0 1 1 1 1 1 2 2 2 2 2 3 2 3 4 4 5 4 3 2 3 3 4 6 6 5 6 6 7 8 8 9 8 8 8 6 5
3 3 2 3 3 2 2 2 3 2 1 1 2 2 1 2 2 3 1 5 4 3 4 4 4 4 4 3 4 4 5 5 5 8 6 5 6 6 5 5 5 6
5 5 5 5 5 4 4 3 2 2 3 4 3 2 2 3 3 2 2 3 4 4 5 4 3 3 3 4 4 4 5 5 5 5 6 5 4 4 3 3 4 5
6 6 6 6 6 6 6 6 6 5 4 4 4 3 2 3 3 3 3 3 3 4 4 3 4 5 5 6 6 7 5 6 5 5 6 5 4 3 2 3 3 3
7 7 7 7 7 6 6 5 6 6 5 5 5 4 4 4 3 2 2 2 2 3 3 3 4 4 9 11 8 6 7 6 5 5 5 4 4 3 3 3 1 2
7 7 7 8 7 5 5 6 6 5 5 5 5 5 4 4 4 4 4 5 5 5 5 5 4 6 10 8 8 7 7 5 5 4 4 4 4 3 3 3 4 1
6 6 6 6 6 6 5 5 6 5 4 5 5 5 5 4 4 5 5 5 5 5 5 4 4 7 9 9 8 7 7 6 5 3 2 3 3 2 3 3 2 1
5 5 6 6 6 6 5 4 4 5 5 5 5 4 4 5 6 5 5 5 4 5 5 5 5 8 10 9 9 7 8 7 6 3 3 2 3 3 3 2 3 3
6 6 6 6 6 6 5 5 6 6 5 5 5 5 5 6 6 6 5 5 5 5 5 5 5 7 9 9 9 10 9 8 2 2 2 3 3 3 3 4 4 4
8 8 8 7 7 7 7 7 6 5 5 5 5 5 6 6 6 6 6 6 5 5 5 5 5 6 7 9 9 10 10 9 3 2 1 2 2 2 2 2 2 2
8 7 7 7 7 7 7 7 7 6 6 5 5 5 5 5 5 5 5 6 5 5 4 5 4 4 6 7 9 10 11 8 2 1 1 1 1 1 2 1 1 1
8 7 7 7 7 7 7 7 6 6 5 4 5 4 4 4 4 4 4 4 4 4 4 3 4 3 2 5 7 10 10 2 1 1 2 2 2 1 1 1 1 1
7 7 7 7 7 7 6 5 5 4 4 3 4 3 4 3 2 2 2 2 2 3 3 2 3 4 2 2 6 9 9 5 1 2 0 1 1 1 1 2 4 4
6 7 6 6 6 5 4 4 4 4 3 2 2 2 1 1 3 2 2 2 0 2 2 4 1 5 5 3 4 5 7 5 2 1 1 1 1 2 1 2 4 4
5 6 5 5 5 4 3 3 2 1 2 2 3 3 2 3 3 3 3 3 2 3 3 3 3 2 7 5 2 3 5 5 3 1 0 1 2 2 3 3 3 4
Wind_Direction
205 208 213 201 205 209 238 199 200 201 223 199 213 221 225 229 230 236 238 251 227 223 225 234 238 240 237 235 231 248 244 233 242 247 245 244 249 249 245 237 235 243
213 211 217 216 207 211 204 232 212 222 195 226 234 232 247 278 254 270 269 250 228 227 231 234 230 234 234 236 219 232 252 244 244 239 240 246 248 248 254 261 257 242
213 210 210 211 218 205 223 214 240 263 279 263 255 265 262 241 261 258 265 267 272 269 235 230 239 240 244 241 239 239 245 245 254 261 258 258 255 259 258 254 254 254
214 216 206 203 184 190 186 206 211 222 232 235 241 247 250 275 275 263 256 245 250 247 252 249 246 246 250 252 248 243 249 258 255 253 251 251 256 256 256 261 258 261
201 202 203 192 182 193 191 218 231 234 243 249 254 254 257 260 266 270 266 257 248 254 244 242 242 245 247 253 255 252 253 260 259 252 250 254 253 255 252 247 249 252
191 195 192 190 185 198 204 224 240 244 235 232 244 253 252 263 273 276 280 275 266 260 252 242 240 236 243 245 238 243 249 249 254 256 251 249 251 242 243 244 240 244
191 205 210 214 208 207 244 243 249 252 255 258 257 259 263 255 255 265 267 252 258 259 258 252 246 247 245 252 255 250 246 250 256 252 252 253 251 253 250 249 252 256
195 189 203 226 230 227 241 250 249 241 244 256 257 262 267 268 262 260 250 240 249 253 252 256 274 277 274 267 267 270 265 262 257 259 261 263 267 261 253 258 258 259
190 186 208 224 234 244 246 248 251 251 245 252 262 266 260 267 270 265 266 264 256 248 251 255 244 258 265 265 267 265 268 262 259 262 260 259 257 259 266 268 260 256
154 150 185 215 225 213 248 255 252 264 265 264 272 283 278 266 273 265 253 251 251 252 248 248 249 248 249 255 248 247 249 259 255 250 251 265 271 267 270 262 250 251
123 153 190 201 204 236 250 250 271 291 294 281 273 254 257 260 234 238 249 251 256 256 252 250 254 253 247 241 252 251 248 247 251 254 251 237 245 249 249 255 266 270
109 98 169 138 77 320 288 321 331 292 281 289 287 276 266 280 282 274 279 268 286 301 275 266 233 231 225 215 243 250 249 239 236 241 249 251 254 249 248 246 239 261
107 102 88 99 109 111 79 59 53 32 14 340 337 312 301 266 284 288 299 4 355 4 358 10 31 30 26 1 333 324 319 304 292 271 258 259 258 257 254 249 230 244
78 75 65 63 68 63 64 68 60 62 44 45 29 22 4 8 355 12 26 48 38 37 36 35 28 24 12 339 314 301 293 288 283 283 278 265 260 270 269 248 242 251
89 86 89 95 92 81 72 66 65 64 69 75 67 43 27 31 38 38 56 54 50 45 46 41 46 38 26 356 338 321 296 285 295 297 293 289 297 285 285 304 301 303
80 78 73 74 76 79 78 80 75 69 71 77 78 76 75 65 67 55 49 60 60 45 38 34 44 42 11 352 336 321 311 295 288 284 284 285 285 281 278 283 226 230
80 76 74 71 70 75 91 96 87 81 77 81 79 68 56 45 42 52 47 35 47 56 52 47 43 26 356 335 330 317 296 285 285 283 284 282 259 266 281 226 242 223
83 84 82 81 79 74 68 78 92 90 81 70 67 65 61 63 60 47 45 39 42 53 57 56 57 22 350 348 337 323 305 300 284 286 303 301 319 313 286 303 289 218
78 71 69 68 69 72 68 77 83 78 75 84 85 83 81 63 57 52 50 48 48 52 50 48 53 33 348 349 340 337 310 297 290 8 317 339 319 314 323 281 287 285
72 76 82 83 90 93 87 78 83 87 88 85 85 79 68 65 61 56 53 52 46 54 58 51 45 20 341 345 341 336 324 310 6 23 3 329 332 333 326 313 311 308
75 75 73 72 72 71 73 77 79 82 76 73 69 66 66 63 65 65 57 53 52 51 56 49 52 11 345 343 339 321 313 305 49 349 348 12 2 10 338 9 335 321
84 84 85 84 81 82 81 80 79 77 79 75 71 69 64 64 61 57 56 53 46 43 50 57 72 36 339 330 325 315 328 290 60 79 60 78 90 21 4 28 359 353
76 77 76 79 80 80 76 76 74 69 61 54 61 54 54 49 52 47 43 44 40 35 28 65 81 100 348 316 312 313 297 283 29 35 67 68 56 99 203 56 18 356
64 69 72 70 69 65 67 63 57 54 49 16 26 30 35 15 338 49 14 44 19 24 16 344 93 125 208 280 305 315 312 309 299 90 90 123 130 139 100 104 70 349
56 57 57 63 63 56 45 47 42 37 28 351 353 312 354 304 343 337 341 283 35 299 156 281 54 145 171 192 276 309 314 312 329 7 71 356 204 153 183 157 149 164
64 59 50 41 55 58 47 30 12 10 4 336 327 312 346 352 318 331 315 315 304 266 235 248 283 191 146 179 207 276 304 314 324 351 270 223 292 297 207 184 196 178